{"data":{"norad_id":58011,"epoch":"2026-05-24T22:52:46.024608Z","epoch_age_seconds":79271,"freshness":"FRESH","line1":"1 58011U 23153W   26144.95331047  .00006881  00000+0  25940-3 0  9993","line2":"2 58011  43.0068 356.0241 0001498 278.6252  81.4430 15.27574730146566","mean_motion":15.2757473,"eccentricity":0.0001498,"inclination_deg":43.0068,"raan_deg":356.0241,"arg_perigee_deg":278.6252,"mean_anomaly_deg":81.443,"bstar":0.0002594,"rev_number":14656,"period_min":94.267073925738,"perigee_km":482.03706831981,"apogee_km":484.09268440197,"semimajor_km":6861.2018763609,"source":"CELESTRAK","updated_at":"2026-05-25T13:38:18.493442Z"}}